This demonstration page uses our WeatherBlox Daily Observations layout. Learn more.

Left ArrowRight Arrow

39.51506, -84.39828

Hourly Observations for January 10, 2021

Temp ( °F °C ) Dew Point ( °F °C ) Humidity (%) Winds ( mph kmh ) Pressure ( in mb ) Visibility ( mi km ) Precip ( " mm )
12:15 am 00:15 Clear with Mist and Fog 21 -6.1 20 -6.5 97 97 N N/A 30.38 1029 7 11 N/A
12:35 am 00:35 Clear with Mist and Fog 21 -6.2 20 -6.4 99 99 N N/A 30.38 1029 5 8 N/A
12:55 am 00:55 Clear with Mist and Fog 21 -5.9 21 -6.2 98 98 N N/A 30.38 1029 7 11 N/A
1:15 am 01:15 Clear with Mist and Fog 21 -6.2 20 -6.4 99 99 N N/A 30.38 1029 7 11 N/A
1:35 am 01:35 Clear with Mist and Fog 21 -6.2 20 -6.4 99 99 N N/A 30.38 1029 4 6 N/A
1:55 am 01:55 Clear with Mist and Fog 21 -6.1 20 -6.4 98 98 N N/A 30.39 1029 7 11 N/A
2:15 am 02:15 Clear 20 -6.8 19 -7.3 96 96 N N/A 30.39 1029 7 11 N/A
2:35 am 02:35 Clear with Mist and Fog 19 -7.3 18 -7.7 97 97 N N/A 30.41 1030 7 11 N/A
2:55 am 02:55 Clear with Mist and Fog 20 -6.8 19 -7.1 98 98 N N/A 30.41 1030 7 11 N/A
3:15 am 03:15 Clear with Mist and Fog 19 -7.3 18 -7.7 97 97 N N/A 30.43 1030 5 8 N/A
3:35 am 03:35 Clear with Mist and Fog 20 -6.6 20 -6.9 98 98 N N/A 30.42 1030 5 8 N/A
3:55 am 03:55 Clear with Mist and Fog 20 -6.9 19 -7.3 97 97 N N/A 30.41 1030 5 8 N/A
4:15 am 04:15 Clear with Mist and Fog 19 -7 19 -7.4 97 97 N N/A 30.43 1030 5 8 N/A
4:35 am 04:35 Clear with Mist and Fog 19 -7 19 -7.4 97 97 N N/A 30.43 1030 5 8 N/A
4:55 am 04:55 Clear with Mist and Fog 20 -6.9 19 -7.3 97 97 N N/A 30.42 1030 5 8 N/A
5:15 am 05:15 Clear with Mist and Fog 19 -7 19 -7.4 97 97 N N/A 30.43 1030 5 8 N/A
5:35 am 05:35 Clear with Mist and Fog 19 -7.3 18 -7.8 96 96 N N/A 30.43 1030 5 8 N/A
5:55 am 05:55 Clear with Mist and Fog 19 -7.5 18 -8 96 96 N N/A 30.43 1030 7 11 N/A
6:15 am 06:15 Clear with Mist and Fog 18 -7.6 17 -8.2 96 96 N N/A 30.43 1030 7 11 N/A
6:35 am 06:35 Clear with Mist and Fog 18 -7.7 17 -8.2 96 96 N N/A 30.43 1030 7 11 N/A
6:55 am 06:55 Clear with Mist and Fog 18 -7.8 17 -8.4 96 96 N N/A 30.44 1031 7 11 N/A
7:15 am 07:15 Clear 18 -8 17 -8.6 96 96 N 3 6 30.44 1031 7 11 N/A
7:35 am 07:35 Clear 18 -8 17 -8.6 96 96 N N/A 30.44 1031 7 11 N/A
7:55 am 07:55 Clear with Mist and Fog 18 -7.9 17 -8.4 96 96 N N/A 30.44 1031 5 8 N/A
8:15 am 08:15 Sunny with Mist and Fog 18 -8 17 -8.6 96 96 N N/A 30.44 1031 5 8 N/A
8:35 am 08:35 Sunny with Mist and Fog 18 -7.8 17 -8.4 96 96 N N/A 30.44 1031 5 8 N/A
8:55 am 08:55 Sunny with Mist and Fog 20 -6.8 19 -7.2 97 97 N N/A 30.43 1031 5 8 N/A
9:15 am 09:15 Sunny with Mist and Fog 21 -6.1 20 -6.4 98 98 N N/A 30.44 1031 4 6 N/A
9:35 am 09:35 Sunny with Mist and Fog 22 -5.3 22 -5.5 99 99 N N/A 30.45 1031 4 6 N/A
9:55 am 09:55 Sunny with Mist and Fog 24 -4.3 24 -4.5 99 99 N N/A 30.45 1031 4 6 N/A
10:15 am 10:15 Sunny with Mist and Fog 26 -3.6 25 -3.8 99 99 SW 3 6 30.45 1031 5 8 N/A
10:35 am 10:35 Sunny with Mist and Fog 28 -2.4 25 -3.8 90 90 SW 3 6 30.44 1031 5 8 N/A
10:55 am 10:55 Sunny with Mist and Fog 29 -1.6 26 -3.4 88 88 SSW 5 7 30.46 1031 7 11 N/A
11:15 am 11:15 Sunny 30 -0.9 26 -3.5 83 83 SW 5 7 30.45 1031 10 16 N/A
11:35 am 11:35 Sunny 32 -0.2 26 -3.4 79 79 W 3 6 30.44 1031 7 11 N/A
11:55 am 11:55 Sunny 32 0.2 25 -4 74 74 SW 5 7 30.42 1030 10 16 N/A
12:15 pm 12:15 Sunny 33 0.6 24 -4.5 69 69 SSW 7 11 30.40 1030 10 16 N/A
12:35 pm 12:35 Sunny 33 0.8 24 -4.6 68 68 WSW 6 9 30.39 1029 10 16 N/A
12:55 pm 12:55 Sunny 34 1.1 24 -4.3 68 68 WSW 6 9 30.39 1029 10 16 N/A
1:15 pm 13:15 Cloudy 33 0.7 24 -4.4 69 69 W 12 19 30.38 1029 10 16 N/A
1:35 pm 13:35 Partly Cloudy 34 1.2 25 -4.1 68 68 SSW 5 7 30.38 1029 10 16 N/A
1:55 pm 13:55 Partly Cloudy 35 1.8 24 -4.3 64 64 SW 7 11 30.37 1028 10 16 N/A
2:15 pm 14:15 Sunny 35 1.8 24 -4.4 64 64 WSW 5 7 30.36 1028 10 16 N/A
2:35 pm 14:35 Sunny 36 2.1 25 -4.1 64 64 SW 6 9 30.36 1028 10 16 N/A
2:55 pm 14:55 Sunny 36 2.3 25 -4.1 63 63 W 5 7 30.35 1028 10 16 N/A
3:15 pm 15:15 Sunny 36 2 24 -4.5 62 62 N N/A 30.34 1027 10 16 N/A
3:35 pm 15:35 Sunny 36 2.1 24 -4.5 62 62 N N/A 30.34 1027 10 16 N/A
3:55 pm 15:55 Sunny 36 2 24 -4.4 63 63 SW 3 6 30.35 1028 10 16 N/A
4:15 pm 16:15 Sunny 36 2 25 -4.1 64 64 SW 5 7 30.35 1028 10 16 N/A
4:35 pm 16:35 Sunny 35 1.9 24 -4.3 64 64 WSW 3 6 30.35 1028 10 16 N/A
4:55 pm 16:55 Sunny 35 1.7 24 -4.2 65 65 SW 5 7 30.35 1028 10 16 N/A
5:15 pm 17:15 Sunny 34 1.1 24 -4.3 68 68 WSW 3 6 30.35 1028 10 16 N/A
5:35 pm 17:35 Clear 34 1.3 25 -4 68 68 N N/A 30.35 1028 10 16 N/A
5:55 pm 17:55 Clear 33 0.6 25 -3.9 72 72 NNW 3 6 30.35 1028 10 16 N/A
6:15 pm 18:15 Clear 31 -0.4 25 -4 77 77 N N/A 30.35 1028 10 16 N/A
6:35 pm 18:35 Clear 26 -3.1 23 -4.8 88 88 N N/A 30.35 1028 10 16 N/A
6:55 pm 18:55 Clear 29 -1.7 24 -4.3 83 83 NNE 5 7 30.36 1028 10 16 N/A
7:15 pm 19:15 Clear 29 -1.5 24 -4.3 81 81 N 3 6 30.36 1028 10 16 N/A
7:35 pm 19:35 Clear 29 -1.4 24 -4.3 81 81 N 3 6 30.36 1028 10 16 N/A
7:55 pm 19:55 Clear 29 -1.4 24 -4.3 81 81 N N/A 30.36 1028 10 16 N/A
8:15 pm 20:15 Clear 28 -2.4 24 -4.6 85 85 N N/A 30.36 1028 10 16 N/A
8:35 pm 20:35 Clear 29 -1.8 24 -4.2 84 84 NNE 3 6 30.36 1028 10 16 N/A
8:55 pm 20:55 Clear 29 -1.6 25 -4.1 83 83 N N/A 30.37 1028 10 16 N/A
9:15 pm 21:15 Clear 28 -2.3 24 -4.4 86 86 N N/A 30.36 1028 10 16 N/A
9:35 pm 21:35 Clear 26 -3.1 25 -4 94 94 N N/A 30.37 1029 7 11 N/A
9:55 pm 21:55 Mostly Cloudy 27 -3 25 -4.1 92 92 N N/A 30.37 1029 7 11 N/A
10:15 pm 22:15 Mostly Cloudy 26 -3.1 24 -4.3 92 92 N N/A 30.38 1029 7 11 N/A
10:35 pm 22:35 Cloudy 26 -3.2 24 -4.4 92 92 N N/A 30.37 1029 7 11 N/A
10:55 pm 22:55 Cloudy 26 -3.1 25 -4.1 93 93 N N/A 30.38 1029 7 11 N/A
11:15 pm 23:15 Partly Cloudy 27 -2.9 25 -4.1 92 92 N N/A 30.38 1029 7 11 N/A
11:35 pm 23:35 Partly Cloudy with Mist and Fog 26 -3.3 24 -4.2 94 94 N N/A 30.38 1029 7 11 N/A
11:55 pm 23:55 Partly Cloudy with Mist and Fog 26 -3.4 25 -4.1 95 95 N N/A 30.37 1029 7 11 N/A

Powered by AerisWeather